Theta_e
307 306 306 304 304 305 305 305 305 304 304 305 305 303 299 298 296 296 296 294 292 291 290 290 289 289 289 288 288 288 287 287 287 287 287 287 287 287 287 287 286 286 286 286
298 302 302 301 301 301 301 301 302 303 303 302 298 297 297 296 295 294 292 292 292 291 290 290 289 289 289 289 289 288 288 287 287 287 287 287 286 286 286 286 286 286 286 286
295 298 297 293 297 297 298 298 299 299 298 293 295 294 293 292 292 292 292 291 291 291 291 290 289 289 289 288 288 287 286 286 287 286 286 285 285 285 285 285 285 285 285 285
292 290 292 295 297 296 296 296 295 295 291 292 292 291 291 291 291 292 291 290 290 290 289 289 290 290 289 288 287 286 285 284 283 283 282 283 282 283 283 283 284 284 284 284
291 289 294 295 295 295 294 293 294 293 293 292 291 291 291 291 291 290 290 290 289 289 289 289 289 289 288 287 286 285 283 282 281 281 280 279 280 280 280 279 280 281 282 283
288 291 287 294 293 293 294 292 293 294 289 291 291 288 287 291 291 290 290 289 289 289 289 289 289 287 287 285 284 282 281 281 279 278 277 276 276 276 276 276 276 276 277 278
293 293 291 293 292 293 289 291 291 291 291 291 289 290 291 291 290 290 289 289 289 289 289 288 287 286 285 283 282 280 279 279 279 278 276 275 274 273 272 272 272 272 272 273
286 288 292 293 291 291 292 293 292 291 291 291 291 291 291 290 290 289 289 289 289 288 287 286 285 284 283 282 281 280 279 278 277 276 275 273 272 270 269 268 268 268 269 269
290 289 293 292 292 292 292 292 292 292 291 291 291 291 290 290 289 289 289 288 288 287 287 285 284 282 282 281 280 279 278 277 276 274 272 270 268 267 267 266 265 266 266 267
290 291 291 292 292 292 292 291 291 291 291 290 290 290 290 289 289 288 288 287 287 286 285 283 282 282 280 278 278 277 276 275 274 272 270 268 266 266 265 265 265 264 265 265
291 292 292 292 292 292 292 291 291 291 290 290 290 289 289 288 288 287 286 286 285 284 282 282 281 280 278 277 276 276 274 273 271 269 267 266 266 265 265 265 265 266 267 268
292 292 292 292 292 292 291 291 291 291 290 290 290 289 288 287 286 285 285 284 283 282 281 281 280 278 277 276 275 274 273 271 270 266 265 265 265 265 266 266 266 267 268 269
292 292 292 292 292 292 291 291 291 290 290 289 289 288 287 285 284 284 282 281 280 281 281 279 278 277 276 275 274 272 271 270 267 266 265 264 264 264 264 266 266 267 267 268
292 292 291 292 291 291 291 291 290 290 289 287 286 285 283 283 283 282 280 279 279 280 279 277 277 276 275 274 273 272 271 268 267 267 266 265 264 264 265 265 265 267 270 268
292 292 292 292 291 291 290 290 289 288 286 285 283 282 283 282 280 278 278 277 278 279 277 276 276 275 274 273 273 272 270 269 267 267 266 265 265 265 266 266 266 267 268 270
292 292 291 291 290 289 288 287 286 285 283 282 282 281 281 279 277 277 277 276 278 277 276 275 274 274 273 272 273 273 271 270 268 268 267 267 267 266 266 266 267 267 268 268
290 289 288 287 286 286 285 283 282 281 281 280 280 279 277 276 276 276 275 275 275 275 274 274 274 273 272 272 272 272 271 271 270 269 268 268 267 266 266 266 266 266 267 268
287 286 285 284 282 281 281 280 279 278 278 277 277 276 275 275 276 275 274 274 274 273 272 272 272 272 272 271 272 272 270 271 270 269 269 268 268 267 266 266 266 266 267 269
283 282 281 280 279 278 277 277 276 275 274 274 274 274 273 274 273 273 273 273 272 272 272 271 271 271 271 271 272 271 271 270 271 270 270 269 269 268 267 266 267 267 267 268
279 279 278 278 277 276 275 274 273 273 272 272 272 272 272 271 271 271 271 271 270 270 270 270 270 270 270 270 271 270 270 270 270 270 270 269 269 268 268 268 267 268 268 268
278 277 276 275 274 273 273 272 272 272 272 271 271 271 271 270 269 269 269 269 268 268 269 269 269 270 269 270 269 269 269 269 270 270 269 269 269 269 268 269 268 268 269 269
275 273 273 272 272 271 270 270 270 270 269 269 268 268 267 267 267 267 266 267 267 267 268 269 269 269 269 269 268 268 268 268 268 269 269 269 268 268 268 268 268 268 269 269
272 272 271 271 270 270 269 269 268 267 267 266 265 265 264 265 265 264 265 265 266 267 267 268 269 269 268 268 268 268 268 268 268 267 267 267 267 268 268 268 268 268 268 269
271 271 270 269 269 268 268 267 266 265 264 264 263 263 263 264 264 263 263 265 266 267 267 268 268 268 268 268 268 268 268 268 268 268 268 267 267 267 267 268 268 268 268 269
270 269 269 268 267 266 265 265 264 263 262 262 262 262 263 263 263 263 264 265 265 266 267 267 267 267 267 267 268 268 268 268 268 268 268 268 268 268 268 268 268 268 268 268
268 268 267 266 266 265 265 264 264 263 263 263 263 262 263 263 263 264 264 265 266 266 267 267 267 267 267 266 266 267 267 267 267 267 267 267 267 267 268 268 268 268 268 268
267 266 266 266 265 265 264 264 264 263 263 263 263 263 263 264 264 264 265 265 266 266 266 266 266 266 265 265 266 266 266 266 266 266 266 266 266 266 266 266 266 266 267 267
Wind_Speed
13 13 13 10 14 16 13 15 15 23 22 23 21 12 2 4 4 4 4 9 9 8 11 13 14 16 18 21 22 23 23 25 27 29 32 34 36 37 40 40 40 40 40 36
7 4 8 15 21 16 17 20 21 21 23 17 11 7 3 4 3 3 5 8 9 9 10 12 13 16 21 24 26 26 27 29 30 32 34 38 40 41 41 41 43 45 46 46
6 1 3 8 19 18 15 18 17 18 12 2 3 4 5 4 6 9 9 9 9 13 15 15 16 16 19 21 21 24 30 33 35 37 38 39 39 40 42 44 45 45 45 47
4 4 4 9 2 4 8 10 5 1 3 6 4 2 5 7 14 12 7 8 12 13 15 20 24 24 23 26 25 32 35 37 38 38 41 43 45 47 48 50 52 54 54 53
3 6 8 12 8 9 5 12 1 3 6 6 4 8 10 7 3 6 11 13 14 15 17 19 21 25 28 30 33 36 38 39 39 40 43 47 50 53 55 55 57 59 60 62
2 4 7 1 5 5 2 10 8 7 5 3 3 1 5 10 16 20 19 18 17 18 21 24 25 28 31 34 36 39 38 41 44 47 48 49 50 51 53 52 54 56 63 65
12 7 7 1 6 7 4 10 7 13 6 7 5 12 24 20 18 18 16 16 18 22 23 24 27 31 34 37 38 41 44 48 51 51 52 51 52 51 52 52 53 55 57 62
2 3 10 3 5 6 4 2 6 12 17 18 22 27 21 20 20 17 15 20 24 26 25 27 30 34 36 40 45 49 51 52 53 52 52 52 51 51 49 45 44 46 47 51
8 5 4 10 13 14 16 17 24 23 25 27 28 23 22 21 17 19 22 23 25 26 28 29 31 34 39 44 48 50 50 51 51 51 51 48 46 43 42 39 37 40 40 42
1 8 16 33 32 31 33 32 28 23 27 25 24 25 23 22 23 24 23 24 25 26 28 29 31 36 42 44 44 46 48 49 49 49 49 44 41 40 40 40 39 39 40 44
14 16 26 31 33 35 36 34 33 31 27 25 27 24 22 23 23 23 24 23 24 25 27 30 35 40 40 39 41 44 45 46 47 47 43 41 39 38 36 37 38 41 44 46
13 19 22 24 29 27 24 24 20 24 28 29 29 27 23 22 23 23 23 22 23 24 27 32 37 38 36 36 37 40 43 44 43 41 41 40 40 42 35 33 34 36 39 41
24 36 36 34 32 33 31 31 29 27 30 29 27 25 23 22 21 22 21 21 21 24 29 34 35 34 31 33 36 37 41 41 39 39 39 38 39 41 43 43 37 36 36 36
41 37 31 36 30 31 28 26 26 26 25 23 25 23 21 21 22 21 20 20 22 26 30 30 31 29 29 32 34 37 38 36 36 37 38 38 39 40 42 44 46 48 41 37
38 34 31 32 29 26 25 25 25 25 23 22 22 21 22 21 20 19 19 20 24 28 27 28 27 25 27 30 33 36 36 35 35 37 36 36 36 37 38 40 42 45 47 45
31 28 25 25 24 23 21 22 21 22 23 21 20 20 20 20 20 19 19 21 27 28 24 25 24 24 25 28 31 34 33 35 35 34 33 33 34 36 38 38 39 38 38 38
18 20 21 19 17 18 20 20 19 19 20 19 19 19 20 21 21 20 20 22 25 25 22 21 21 21 22 25 29 30 32 32 31 32 31 31 32 32 32 34 35 35 35 33
21 19 17 16 16 16 17 17 16 16 17 18 19 20 21 22 22 23 22 24 24 22 17 17 17 18 19 21 24 26 28 28 28 28 28 29 29 29 29 30 29 30 30 29
15 15 13 12 11 12 13 14 15 16 16 18 19 21 22 23 23 25 25 26 23 21 14 14 14 15 16 16 19 21 23 25 24 24 25 26 26 27 27 28 27 26 27 28
10 9 9 9 10 11 12 14 16 16 16 19 22 24 24 23 24 25 25 25 19 18 14 13 13 13 13 13 16 18 20 22 24 23 23 24 23 25 26 27 27 28 28 28
9 9 9 9 9 10 12 14 17 18 19 22 24 26 27 26 23 22 23 22 13 14 12 12 12 11 11 12 14 15 17 19 21 22 23 23 23 23 25 26 27 28 29 29
8 7 7 7 9 10 13 15 18 20 20 21 22 23 23 23 20 18 17 17 12 12 12 11 10 10 10 11 12 12 13 15 17 19 20 20 22 23 23 24 25 26 26 27
5 5 7 9 11 12 14 16 18 19 19 18 19 18 19 18 15 15 14 10 10 10 11 9 9 9 9 11 11 11 12 12 14 15 17 18 19 20 21 22 22 23 24 24
3 4 7 10 12 14 14 14 15 14 14 13 13 13 13 12 10 9 11 11 11 10 9 9 9 9 10 11 11 11 12 12 12 13 14 14 15 16 17 18 19 19 19 19
3 5 7 9 10 11 12 12 10 9 9 10 10 11 10 9 10 8 10 10 9 9 8 8 8 9 10 10 11 11 11 12 12 13 14 14 14 15 15 16 16 17 17 17
2 3 4 5 6 8 9 9 9 9 10 9 7 9 9 8 8 8 8 8 8 8 8 8 8 9 9 9 10 10 10 11 11 12 13 14 14 14 14 15 15 15 16 16
2 2 2 4 5 7 8 8 9 9 9 8 9 8 8 8 7 7 7 8 8 8 7 8 9 9 10 10 11 11 11 12 13 13 13 14 14 15 15 15 15 15 14 14
Wind_Direction
258 274 290 296 280 279 275 266 260 273 277 276 287 303 356 301 99 139 234 254 254 251 279 301 306 312 322 330 333 328 324 320 320 320 320 319 317 315 312 312 311 310 310 309
281 271 277 275 270 270 270 268 266 267 269 284 3 29 72 54 27 319 333 315 313 269 282 285 287 289 303 313 318 321 324 319 314 313 313 312 310 308 306 304 303 304 303 302
254 137 317 294 253 249 253 255 259 268 274 347 21 54 59 26 296 288 290 305 303 303 281 284 287 289 289 293 292 300 309 313 312 312 311 309 307 306 305 305 303 301 299 299
258 67 241 250 212 317 288 282 284 262 167 186 169 347 318 300 281 274 279 289 287 283 289 296 293 288 288 296 299 307 313 315 315 313 310 310 308 306 303 301 299 297 295 293
211 204 279 302 292 293 309 290 25 263 191 166 13 313 287 304 331 305 294 291 287 294 297 296 292 293 298 302 310 313 313 312 310 307 305 304 302 301 299 298 295 292 290 289
179 212 226 125 95 140 95 272 219 184 134 99 301 261 266 301 297 295 292 291 289 292 294 291 296 301 305 308 311 313 312 309 308 306 303 300 299 296 294 290 289 290 291 289
236 247 262 190 121 99 123 270 157 162 182 248 215 255 290 284 282 283 284 284 275 283 289 294 299 304 308 311 313 313 312 310 308 307 307 305 302 299 298 294 291 288 287 288
178 240 274 172 123 167 210 181 208 218 256 262 286 299 286 282 275 278 271 267 274 289 296 304 308 312 314 315 315 314 312 311 311 311 311 310 309 307 305 300 293 289 287 287
187 200 208 213 222 235 259 273 286 275 277 279 286 280 287 280 271 265 268 272 284 293 300 306 311 314 313 313 314 313 312 313 314 315 316 315 314 313 312 309 298 292 289 289
92 247 254 265 265 269 276 282 283 276 286 287 283 281 279 263 263 269 276 282 289 299 305 310 314 313 314 316 315 314 315 316 319 320 320 319 318 315 310 305 300 294 293 291
246 253 257 262 264 269 272 277 277 279 276 282 280 273 263 259 265 273 280 284 294 302 307 311 313 314 317 319 317 317 317 320 324 323 319 318 316 314 307 302 299 298 295 293
244 244 249 252 263 271 270 264 271 279 283 283 277 271 265 261 266 271 276 287 295 300 307 312 314 316 322 319 319 319 322 326 322 323 327 322 319 316 316 302 300 297 295 293
251 258 261 265 270 278 277 277 278 277 282 279 272 264 263 265 267 273 283 289 294 302 310 314 315 319 322 320 323 326 325 323 329 330 327 323 319 314 308 319 313 307 303 300
257 259 263 264 267 273 273 274 274 273 271 264 260 260 260 263 268 276 283 290 299 307 312 313 314 321 320 325 327 328 325 331 334 334 330 327 321 316 315 311 310 317 331 317
260 260 263 270 269 266 269 272 273 272 268 261 259 263 269 270 274 277 282 292 301 306 312 311 314 321 324 328 332 328 334 338 339 336 333 329 326 323 320 315 312 311 318 325
263 260 256 257 264 266 266 264 262 263 263 262 264 266 267 270 272 279 288 299 301 305 311 309 314 320 327 331 333 333 340 346 342 336 335 335 335 332 325 320 318 316 319 324
246 251 255 258 262 265 268 269 264 260 261 263 265 268 271 274 278 284 291 295 297 302 305 306 312 319 328 333 334 334 348 344 341 342 341 340 339 335 336 330 326 327 330 334
256 258 263 269 270 268 266 266 263 259 258 265 269 271 274 278 284 291 297 296 296 297 300 299 308 318 326 333 332 343 345 346 346 346 345 345 344 346 345 342 341 344 345 349
254 257 259 261 264 264 264 264 263 264 264 266 268 272 276 282 290 293 296 292 294 297 297 296 304 313 322 332 333 344 348 349 351 353 351 350 353 358 0 360 360 1 2 4
244 252 258 262 260 254 254 258 263 268 273 276 280 284 289 291 289 288 287 288 293 289 285 294 305 311 321 334 338 344 352 357 0 359 359 2 4 8 14 16 18 19 20 20
230 239 244 243 248 257 263 271 278 284 286 287 288 289 288 287 288 288 286 288 287 277 282 291 297 307 325 336 341 345 352 2 7 7 9 11 14 16 19 23 26 26 27 30
217 225 240 257 271 282 288 292 293 292 291 289 287 289 291 292 292 286 282 283 273 266 279 284 291 307 323 334 337 339 350 360 5 9 13 15 16 18 20 22 24 26 27 29
202 246 279 290 299 304 307 303 301 301 302 302 299 298 294 294 290 282 279 276 274 281 283 288 295 307 318 327 328 335 344 351 359 4 8 11 14 16 18 21 23 24 25 27
244 288 304 313 314 314 317 317 316 316 314 313 309 306 300 297 283 277 280 267 273 275 282 289 298 306 314 320 324 329 333 339 345 350 355 359 3 7 11 14 17 20 22 24
301 318 321 323 326 330 333 331 328 322 319 320 322 322 316 303 287 273 273 278 277 281 287 293 302 307 313 319 322 325 329 334 337 342 344 345 346 350 353 356 360 3 6 9
334 337 340 343 344 343 343 342 340 338 330 326 326 307 314 304 294 288 285 284 286 290 295 301 305 309 315 321 322 324 327 331 335 338 339 339 341 344 346 348 349 350 352 355
95 74 31 3 359 354 348 346 345 341 336 326 330 316 316 314 309 305 302 299 300 301 308 310 310 313 314 315 317 322 325 327 330 332 333 335 337 337 340 343 345 346 347 347